"Sample Date","Sample Time","Sensor Name","Part Name","Sensor Type","Sample Value","Units","Flow Rate","Sample Interval","Sample Volume","DC Light Level","Laser Status","Number Channels","Micron Size 0","Counts/Channel 0","Micron Size 1","Counts/Channel 1","Micron Size 2","Counts/Channel 2","Micron Size 3","Counts/Channel 3","Micron Size 4","Counts/Channel 4","Micron Size 5","Counts/Channel 5","Micron Size 6","Counts/Channel 6","Micron Size 7","Counts/Channel 7","Micron Size 8","Counts/Channel 8","Micron Size 9","Counts/Channel 9","Micron Size 10","Counts/Channel 10","Micron Size 11","Counts/Channel 11","Micron Size 12","Counts/Channel 12","Micron Size 13","Counts/Channel 13","Micron Size 14","Counts/Channel 14","Micron Size 15","Counts/Channel 15","Micron Size 16","Counts/Channel 16","Micron Size 17","Counts/Channel 17","Micron Size 18","Counts/Channel 18","Micron Size 19","Counts/Channel 19","Micron Size 20","Counts/Channel 20","Micron Size 21","Counts/Channel 21","Micron Size 22","Counts/Channel 22","Micron Size 23","Counts/Channel 23","Micron Size 24","Counts/Channel 24","Micron Size 25","Counts/Channel 25","Micron Size 26","Counts/Channel 26","Micron Size 27","Counts/Channel 27","Micron Size 28","Counts/Channel 28","Micron Size 29","Counts/Channel 29","Micron Size 30","Counts/Channel 30","Micron Size 31","Counts/Channel 31"
"11/12/03","22:19:53","revelle","LasairII-110","P",652468.000,"cf",1.001,60.00,1.001,0,1,6,0.100,304548.000,0.200,278224.000,0.300,62452.000,0.500,4981.000,1.000,2263.000,5.000,0
"11/12/03","22:20:53","revelle","LasairII-110","P",646813.000,"cf",1.000,60.00,1.000,0,1,6,0.100,302683.000,0.200,273695.000,0.300,63287.000,0.500,4949.000,1.000,2199.000,5.000,0
"11/12/03","22:21:53","revelle","LasairII-110","P",646482.000,"cf",0.999,60.00,0.999,0,1,6,0.100,299897.000,0.200,274254.000,0.300,64962.000,0.500,5098.000,1.000,2271.000,5.000,0
"11/12/03","22:22:53","revelle","LasairII-110","P",643703.000,"cf",1.000,60.00,1.000,0,1,6,0.100,298099.000,0.200,273852.000,0.300,64670.000,0.500,4821.000,1.000,2261.000,5.000,0
"11/12/03","22:23:53","revelle","LasairII-110","P",642693.000,"cf",0.999,60.00,0.999,0,1,6,0.100,295768.000,0.200,274311.000,0.300,65184.000,0.500,5062.000,1.000,2368.000,5.000,0
"11/12/03","22:24:53","revelle","LasairII-110","P",644454.000,"cf",1.000,60.00,1.000,0,1,6,0.100,294871.000,0.200,276429.000,0.300,65560.000,0.500,5181.000,1.000,2411.000,5.000,2.000
"11/12/03","22:25:53","revelle","LasairII-110","P",644405.000,"cf",1.000,60.00,1.000,0,1,6,0.100,293654.000,0.200,277245.000,0.300,66086.000,0.500,5049.000,1.000,2371.000,5.000,0
"11/12/03","22:26:53","revelle","LasairII-110","P",639240.000,"cf",1.000,60.00,1.000,0,1,6,0.100,292654.000,0.200,274379.000,0.300,65386.000,0.500,4764.000,1.000,2057.000,5.000,0
"11/12/03","22:27:53","revelle","LasairII-110","P",639907.000,"cf",0.999,60.00,0.999,0,1,6,0.100,292826.000,0.200,273686.000,0.300,66058.000,0.500,5125.000,1.000,2211.000,5.000,1.000
"11/12/03","22:28:53","revelle","LasairII-110","P",637217.000,"cf",1.000,60.00,1.000,0,1,6,0.100,291385.000,0.200,273464.000,0.300,65290.000,0.500,4934.000,1.000,2142.000,5.000,2.000
"11/12/03","22:29:53","revelle","LasairII-110","P",635226.000,"cf",1.000,60.00,1.000,0,1,6,0.100,290535.000,0.200,271794.000,0.300,65692.000,0.500,5029.000,1.000,2176.000,5.000,0
"11/12/03","22:30:53","revelle","LasairII-110","P",640002.000,"cf",1.000,60.00,1.000,0,1,6,0.100,290533.000,0.200,275056.000,0.300,66823.000,0.500,5223.000,1.000,2367.000,5.000,0
"11/12/03","22:31:53","revelle","LasairII-110","P",656831.000,"cf",1.000,60.00,1.000,0,1,6,0.100,296309.000,0.200,285369.000,0.300,67728.000,0.500,5007.000,1.000,2418.000,5.000,0
"11/12/03","22:32:53","revelle","LasairII-110","P",661220.000,"cf",0.999,60.00,0.999,0,1,6,0.100,297197.000,0.200,287671.000,0.300,68246.000,0.500,5510.000,1.000,2596.000,5.000,0
"11/12/03","22:33:53","revelle","LasairII-110","P",656475.000,"cf",1.000,60.00,1.000,0,1,6,0.100,295052.000,0.200,285738.000,0.300,68134.000,0.500,5209.000,1.000,2342.000,5.000,0
"11/12/03","22:34:53","revelle","LasairII-110","P",650622.000,"cf",1.000,60.00,1.000,0,1,6,0.100,296293.000,0.200,280840.000,0.300,65943.000,0.500,5183.000,1.000,2363.000,5.000,0
"11/12/03","22:35:53","revelle","LasairII-110","P",662184.000,"cf",1.000,60.00,1.000,0,1,6,0.100,297365.000,0.200,288873.000,0.300,67806.000,0.500,5506.000,1.000,2634.000,5.000,0
"11/12/03","22:36:53","revelle","LasairII-110","P",668580.000,"cf",1.000,60.00,1.000,0,1,6,0.100,299180.000,0.200,292599.000,0.300,68659.000,0.500,5419.000,1.000,2723.000,5.000,0
"11/12/03","22:37:53","revelle","LasairII-110","P",672174.000,"cf",1.000,60.00,1.000,0,1,6,0.100,300024.000,0.200,294108.000,0.300,69405.000,0.500,5711.000,1.000,2926.000,5.000,0
"11/12/03","22:38:53","revelle","LasairII-110","P",669030.000,"cf",1.000,60.00,1.000,0,1,6,0.100,298028.000,0.200,292742.000,0.300,69317.000,0.500,5846.000,1.000,3097.000,5.000,0
"11/12/03","22:39:53","revelle","LasairII-110","P",664661.000,"cf",1.000,60.00,1.000,0,1,6,0.100,297508.000,0.200,288887.000,0.300,69490.000,0.500,5825.000,1.000,2951.000,5.000,0
"11/12/03","22:40:53","revelle","LasairII-110","P",665165.000,"cf",1.000,60.00,1.000,0,1,6,0.100,298953.000,0.200,289159.000,0.300,68462.000,0.500,5619.000,1.000,2972.000,5.000,0
"11/12/03","22:41:53","revelle","LasairII-110","P",655537.000,"cf",1.000,60.00,1.000,0,1,6,0.100,297487.000,0.200,282835.000,0.300,66910.000,0.500,5567.000,1.000,2738.000,5.000,0
"11/12/03","22:42:53","revelle","LasairII-110","P",646115.000,"cf",1.000,60.00,1.000,0,1,6,0.100,297681.000,0.200,276017.000,0.300,64801.000,0.500,5213.000,1.000,2403.000,5.000,0
"11/12/03","22:43:53","revelle","LasairII-110","P",646068.000,"cf",1.000,60.00,1.000,0,1,6,0.100,299175.000,0.200,275105.000,0.300,64123.000,0.500,5225.000,1.000,2439.000,5.000,1.000
"11/12/03","22:44:53","revelle","LasairII-110","P",644360.000,"cf",1.001,60.00,1.001,0,1,6,0.100,298462.000,0.200,273608.000,0.300,64608.000,0.500,5237.000,1.000,2444.000,5.000,1.000
"11/12/03","22:45:53","revelle","LasairII-110","P",646406.000,"cf",1.000,60.00,1.000,0,1,6,0.100,299755.000,0.200,274412.000,0.300,64525.000,0.500,5338.000,1.000,2375.000,5.000,1.000
"11/12/03","22:46:53","revelle","LasairII-110","P",647400.000,"cf",1.000,60.00,1.000,0,1,6,0.100,300141.000,0.200,274462.000,0.300,64937.000,0.500,5416.000,1.000,2444.000,5.000,0
"11/12/03","22:47:53","revelle","LasairII-110","P",655749.000,"cf",1.000,60.00,1.000,0,1,6,0.100,301075.000,0.200,279959.000,0.300,66270.000,0.500,5588.000,1.000,2857.000,5.000,0
"11/12/03","22:48:53","revelle","LasairII-110","P",662472.000,"cf",1.000,60.00,1.000,0,1,6,0.100,303558.000,0.200,283302.000,0.300,66872.000,0.500,5753.000,1.000,2986.000,5.000,1.000
"11/12/03","22:49:53","revelle","LasairII-110","P",665383.000,"cf",1.000,60.00,1.000,0,1,6,0.100,304532.000,0.200,284411.000,0.300,67315.000,0.500,5857.000,1.000,3268.000,5.000,0
"11/12/03","22:50:53","revelle","LasairII-110","P",657568.000,"cf",1.000,60.00,1.000,0,1,6,0.100,304636.000,0.200,278100.000,0.300,66094.000,0.500,5698.000,1.000,3040.000,5.000,0
"11/12/03","22:51:53","revelle","LasairII-110","P",645575.000,"cf",1.000,60.00,1.000,0,1,6,0.100,304799.000,0.200,269599.000,0.300,63571.000,0.500,5071.000,1.000,2535.000,5.000,0
"11/12/03","22:52:53","revelle","LasairII-110","P",643275.000,"cf",1.000,60.00,1.000,0,1,6,0.100,305206.000,0.200,268772.000,0.300,62251.000,0.500,4900.000,1.000,2146.000,5.000,0
"11/12/03","22:53:53","revelle","LasairII-110","P",646470.000,"cf",1.000,60.00,1.000,0,1,6,0.100,306248.000,0.200,270160.000,0.300,62655.000,0.500,5152.000,1.000,2255.000,5.000,0
"11/12/03","22:54:53","revelle","LasairII-110","P",627007.000,"cf",1.000,60.00,1.000,0,1,6,0.100,287178.000,0.200,268392.000,0.300,64722.000,0.500,4779.000,1.000,1936.000,5.000,0
"11/12/03","22:55:53","revelle","LasairII-110","P",596795.000,"cf",1.000,60.00,1.000,0,1,6,0.100,267476.000,0.200,259571.000,0.300,63831.000,0.500,4245.000,1.000,1670.000,5.000,2.000
"11/12/03","22:56:53","revelle","LasairII-110","P",642099.000,"cf",1.000,60.00,1.000,0,1,6,0.100,302973.000,0.200,269756.000,0.300,62228.000,0.500,4974.000,1.000,2168.000,5.000,0
"11/12/03","22:57:53","revelle","LasairII-110","P",644342.000,"cf",1.000,60.00,1.000,0,1,6,0.100,305153.000,0.200,269915.000,0.300,62393.000,0.500,4815.000,1.000,2065.000,5.000,1.000
"11/12/03","22:58:53","revelle","LasairII-110","P",648649.000,"cf",1.000,60.00,1.000,0,1,6,0.100,304873.000,0.200,272979.000,0.300,63191.000,0.500,5251.000,1.000,2355.000,5.000,0
"11/12/03","22:59:53","revelle","LasairII-110","P",649700.000,"cf",1.000,60.00,1.000,0,1,6,0.100,305268.000,0.200,273448.000,0.300,63474.000,0.500,5203.000,1.000,2307.000,5.000,0
"11/12/03","23:00:02","revelle","LasairII-110","P",103433.000,"cf",0.999,9.00,0.150,0,1,6,0.100,49101.000,0.200,43168.000,0.300,10012.000,0.500,770.000,1.000,382.000,5.000,0
"11/12/03","23:13:00","revelle","LasairII-110","P",506914.000,"cf",1.003,44.00,0.736,0,1,6,0.100,254300.000,0.200,208317.000,0.300,39601.000,0.500,3274.000,1.000,1422.000,5.000,0
"11/12/03","23:14:06","revelle","LasairII-110","P",678984.000,"cf",1.000,60.00,1.000,0,1,6,0.100,335000.000,0.200,282759.000,0.300,55067.000,0.500,4258.000,1.000,1899.000,5.000,1.000
"11/12/03","23:15:06","revelle","LasairII-110","P",673404.000,"cf",1.000,60.00,1.000,0,1,6,0.100,329802.000,0.200,282176.000,0.300,55396.000,0.500,4188.000,1.000,1841.000,5.000,1.000
"11/12/03","23:16:06","revelle","LasairII-110","P",672307.000,"cf",0.999,60.00,0.999,0,1,6,0.100,327562.000,0.200,282808.000,0.300,56031.000,0.500,4064.000,1.000,1841.000,5.000,1.000
"11/12/03","23:17:06","revelle","LasairII-110","P",670880.000,"cf",1.000,60.00,1.000,0,1,6,0.100,327615.000,0.200,281427.000,0.300,55877.000,0.500,4178.000,1.000,1782.000,5.000,1.000
